Minneapolis Flying Cloud, MN

1:29 PM CST on November 11, 2019 (GMT -0600)
Flying Cloud

Weather History for KFCM - September, 2019

Change the Weather History Date:

Friday, September 13, 2019

  Actual Average Record
Temperature  
Mean Temperature 58 °F -  
Max Temperature 62 °F 74 °F 95 °F (1998)
Min Temperature 54 °F 53 °F 34 °F (2014)
Degree Days  
Heating Degree Days 7    
Growing Degree Days 8 (Base 50)    
Moisture  
Dew Point 51 °F    
Average Humidity 80    
Maximum Humidity 90    
Minimum Humidity 69    
Precipitation  
Precipitation 0.01 in - - ()
Sea Level Pressure  
Sea Level Pressure 29.94 in    
Wind  
Wind Speed 11 mph (WSW)    
Max Wind Speed 20 mph    
Max Gust Speed 32 mph    
Visibility 9 miles    
Events Rain    
Averages and records for this station are not official NWS values.
T = Trace of Precipitation, MM = Missing Value Source: NWS Daily Summary

Daily Weather History Graph

Daily Weather History Graph

Search for Another Location

Airport or City:

Astronomy

Sep. 13, 2019 Rise Set
Actual Time 6:50 AM CDT 7:28 PM CDT
Civil Twilight 6:20 AM CDT 7:58 PM CDT
Nautical Twilight 5:45 AM CDT 8:33 PM CDT
Astronomical Twilight 5:09 AM CDT 9:09 PM CDT
Moon 7:45 PM CDT (9/13) 6:02 AM CDT (9/13)
Length of Visible Light 13h 37m
Length of Day
12h 38m
Full, 100% of the Moon is Illuminated
Sep 13
Full
Sep 13
Full
Sep 21
Last Quarter
Sep 28
New
Oct 5
First Quarter

Hourly Weather History & Observations

Time (CDT) Temp. Dew Point Humidity Pressure Visibility Wind Dir Wind Speed Gust Speed Precip Events Conditions
12:53 AM 62.1 °F 59.0 °F 90% 29.80 in 10.0 mi SSW 8.1 mph - N/A   Partly Cloudy
1:53 AM 60.1 °F 57.0 °F 90% 29.80 in 10.0 mi SW 9.2 mph - N/A   Clear
2:53 AM 60.1 °F 57.0 °F 90% 29.81 in 6.0 mi SW 13.8 mph 20.7 mph N/A   Overcast
3:14 AM 60.1 °F 57.0 °F 90% 29.82 in 10.0 mi WSW 11.5 mph - N/A   Overcast
3:53 AM 59.0 °F 55.0 °F 87% 29.83 in 10.0 mi West 10.4 mph 20.7 mph N/A   Overcast
4:14 AM 57.9 °F 55.0 °F 90% 29.83 in 8.0 mi West 10.4 mph 19.6 mph N/A   Overcast
4:36 AM 57.9 °F 54.0 °F 87% 29.83 in 10.0 mi WSW 11.5 mph 18.4 mph N/A   Mostly Cloudy
4:53 AM 57.9 °F 55.0 °F 90% 29.83 in 10.0 mi WSW 10.4 mph - N/A   Overcast
5:02 AM 57.9 °F 54.0 °F 87% 29.83 in 10.0 mi WSW 10.4 mph - N/A   Overcast
5:32 AM 57.0 °F 54.0 °F 89% 29.84 in 10.0 mi SW 9.2 mph - 0.00 in   Overcast
5:53 AM 57.0 °F 53.1 °F 87% 29.84 in 10.0 mi WSW 11.5 mph - 0.00 in   Overcast
6:53 AM 55.0 °F 51.1 °F 86% 29.86 in 10.0 mi WSW 12.7 mph 19.6 mph N/A   Overcast
7:00 AM 55.0 °F 51.1 °F 86% 29.87 in 10.0 mi WSW 13.8 mph 21.9 mph N/A   Overcast
7:34 AM 54.0 °F 51.1 °F 90% 29.88 in 6.0 mi West 10.4 mph 24.2 mph N/A   Overcast
7:53 AM 55.0 °F 50.0 °F 83% 29.88 in 10.0 mi West 12.7 mph 25.3 mph N/A   Overcast
8:53 AM 55.9 °F 50.0 °F 80% 29.90 in 10.0 mi West 13.8 mph 21.9 mph 0.00 in   Overcast
9:50 AM 55.4 °F 48.2 °F 77% 29.93 in 10.0 mi WSW 12.7 mph 27.6 mph N/A   Mostly Cloudy
9:53 AM 57.0 °F 48.0 °F 72% 29.93 in 10.0 mi West 13.8 mph 27.6 mph N/A   Mostly Cloudy
10:12 AM 54.0 °F 48.9 °F 83% 29.94 in 2.5 mi West 17.3 mph 25.3 mph 0.00 in Rain Light Rain
10:23 AM 55.0 °F 50.0 °F 83% 29.94 in 5.0 mi WSW 13.8 mph 26.5 mph 0.00 in Rain Light Rain
10:53 AM 57.9 °F 48.0 °F 70% 29.95 in 10.0 mi West 13.8 mph 31.1 mph 0.00 in   Overcast
11:53 AM 57.0 °F 48.0 °F 72% 29.97 in 10.0 mi WSW 11.5 mph 26.5 mph N/A   Overcast
12:15 PM 57.0 °F 48.9 °F 74% 29.98 in 10.0 mi West 17.3 mph 26.5 mph 0.00 in   Overcast
12:50 PM 57.2 °F 48.2 °F 72% 29.98 in 9.0 mi West 17.3 mph 27.6 mph 0.01 in   Overcast
12:53 PM 55.9 °F 48.9 °F 77% 29.99 in 7.0 mi West 15.0 mph 26.5 mph 0.01 in Rain Light Rain
1:07 PM 59.0 °F 50.0 °F 72% 29.98 in 10.0 mi West 19.6 mph 32.2 mph 0.00 in   Overcast
1:53 PM 59.0 °F 48.9 °F 69% 29.99 in 10.0 mi West 10.4 mph 28.8 mph 0.00 in   Overcast
2:46 PM 59.0 °F 48.9 °F 69% 29.99 in 10.0 mi West 15.0 mph 26.5 mph N/A   Overcast
2:53 PM 59.0 °F 48.9 °F 69% 29.99 in 10.0 mi West 15.0 mph 27.6 mph N/A   Overcast
3:53 PM 59.0 °F 48.9 °F 69% 30.01 in 10.0 mi West 12.7 mph 27.6 mph N/A   Overcast
4:53 PM 60.1 °F 50.0 °F 69% 30.01 in 10.0 mi West 8.1 mph 19.6 mph N/A   Overcast
5:53 PM 59.0 °F 48.9 °F 69% 30.02 in 10.0 mi West 10.4 mph 20.7 mph N/A   Overcast
6:53 PM 59.0 °F 48.9 °F 69% 30.04 in 10.0 mi WSW 6.9 mph - N/A   Overcast
7:00 PM 59.0 °F 50.0 °F 72% 30.03 in 10.0 mi WSW 8.1 mph - N/A   Overcast
7:53 PM 57.9 °F 50.0 °F 75% 30.06 in 10.0 mi WSW 8.1 mph - N/A   Overcast
8:53 PM 55.9 °F 51.1 °F 84% 30.07 in 10.0 mi SW 5.8 mph - N/A   Overcast
9:53 PM 57.0 °F 52.0 °F 83% 30.08 in 10.0 mi WSW 5.8 mph - N/A   Overcast
10:53 PM 57.0 °F 52.0 °F 83% 30.08 in 10.0 mi WSW 4.6 mph - N/A   Overcast
11:10 PM 55.9 °F 52.0 °F 87% 30.08 in 10.0 mi SW 4.6 mph - N/A   Mostly Cloudy
11:21 PM 55.0 °F 51.1 °F 86% 30.08 in 10.0 mi SW 5.8 mph - N/A   Scattered Clouds
11:53 PM 55.0 °F 51.1 °F 86% 30.08 in 10.0 mi WSW 4.6 mph - N/A   Clear